STARLINK-1293 (45411 NORAD) Tracking and Keplerian Element Data

This shows tracking and keplerian element data for the satellite.

Feedback or suggestion? Click here.




ElementValue
Catalog45411
NameSTARLINK-1293
Epoch Orbit1740
Epoch Day187.50002315
Epoch Year2020
RAAN83.7121
Inclination53.0003
Eccentricity0.000138
Argument of Perigee83.1663
Mean Anonmoly134.5552
Mean Motion15.20056662
Decay Rate-0.01054845
L11 45411U 20019BD 20187.50002315 -.01054845 00000-0 -52710-1 0 9996
L22 45411 53.0003 83.7121 0001380 83.1663 134.5552 15.20056662 17409

Live tracking and technical data element details for STARLINK-1293 (NORAD 45411). STARLINK-1293 can be tracked NOW for your location showing map with azimuth and elevation plus other details from your city location.

Track the satellite on the map from your city or location and see movement details for azimuth, elevation, latitude, longitude, range, height, and movement on the map or in text.







IsCatalogInMostPopularTable: catalog: 45411, numindb: 27
Update: records affected: 1



GetName: 45411 STARLINK-1293

Hit Count: updated at: Mon, 06 Jul 2020 05:10:46 GMT